Retour au catalogue

STARLINK-32546

ActifCommunicationsVLEO
NORAD 62134·PAYLOAD·🇺🇸 United States

Lancé Nov 27, 2024 depuis Cape Canaveral Space Force Station

Loading…

Prochains Passages (prochaines 24 heures)

TLE

FraisSource: CelesTrak SupGP

Époque: Sep 15, 2026, 02:28 UTC

1 62134C 24222W   26258.10326389  .00026759  00000+0  96948-3 0  2588
2 62134  43.0004 143.2032 0001392 279.8851 135.0610 15.27556290    18

Suivez STARLINK-32546 en temps réel avec AllMySat

Download on the App Store